Simultaneous Nadir Overpasses (SNOs) Predictions

Prediction of SNOs between METOP-B and TERRA Satellite Orbit:

Table of predicted SNOs for the next 14.0 days since TLE Epoch: 7/28/2017
Index Date (METOP-B) Time (METOP-B) Lat,Lon (METOP-B) SZA (METOP-B ) Date (TERRA) Time (TERRA) Lat,Lon (TERRA) SZA (TERRA ) Distance(km) Time Diff (sec)
1 07/30/2017 10:47:08 -81.34,-114.10 114.32 07/30/2017 10:48:19 -81.35,-114.02 114.27 1.69 71
2 07/30/2017 11:37:48 81.34, 53.56 65.74 07/30/2017 11:37:45 81.35, 53.67 65.75 2.08 3
3 08/02/2017 06:21:28 -81.33, -47.95 113.64 08/02/2017 06:22:35 -81.34, -47.77 113.59 3.06 67
4 08/02/2017 07:12:07 81.34, 120.06 66.45 08/02/2017 07:12:01 81.34, 119.91 66.43 2.57 6
5 08/05/2017 01:55:47 -81.34, 18.97 112.83 08/05/2017 01:56:51 -81.34, 18.82 112.82 2.50 64
6 08/05/2017 02:46:27 81.34,-173.46 67.21 08/05/2017 02:46:17 81.35,-173.51 67.20 0.93 10
7 08/07/2017 21:30:08 -81.34, 85.10 112.08 08/07/2017 21:31:08 -81.33, 85.01 112.07 1.71 60
8 08/07/2017 22:20:47 81.34,-106.98 68.00 08/07/2017 22:20:33 81.35,-106.96 68.00 0.96 14
9 08/10/2017 17:04:28 -81.34, 151.61 111.25 08/10/2017 17:05:24 -81.34, 151.53 111.24 1.29 56




NCC Satellite Simultaneous Nadir Overpasses (SNOs) Prediction Service
